• In Uzbekistan
  • List of Countries
  • For 7 days
  • Water Temperature
  • Satellite Maps
  • Weather Map
  • Weather Widgets
  • user-avatar
    Login

    Hourly Weather Canillo

    Today, 19 November, Sunday

    Time Temperature Precipitation Wind Pressure Humidity
    00:00 -3°C° 0 mm 2 mps 619 mmHg 46%
    01:00 -3°C° 0 mm 2 mps 619 mmHg 45%
    02:00 -2°C° 0 mm 2 mps 619 mmHg 44%
    03:00 -2°C° 0 mm 2 mps 619 mmHg 43%
    04:00 -2°C° 0 mm 2 mps 619 mmHg 42%
    05:00 -3°C° 0 mm 2 mps 619 mmHg 42%
    06:00 -3°C° 0 mm 2 mps 619 mmHg 42%
    07:00 -1°C° 0 mm 2 mps 620 mmHg 39%
    08:00 +2°C° 0 mm 2 mps 621 mmHg 37%
    09:00 +4°C° 0 mm 2 mps 622 mmHg 34%
    10:00 +5°C° 0 mm 2 mps 622 mmHg 33%
    11:00 +6°C° 0 mm 2 mps 622 mmHg 33%
    12:00 +8°C° 0 mm 2 mps 623 mmHg 32%
    13:00 +7°C° 0 mm 2 mps 622 mmHg 36%
    14:00 +7°C° 0 mm 2 mps 622 mmHg 40%
    15:00 +6°C° 0 mm 2 mps 621 mmHg 44%
    16:00 +4°C° 0 mm 2 mps 621 mmHg 50%
    17:00 +2°C° 0 mm 2 mps 620 mmHg 56%
    18:00 -1°C° 0 mm 2 mps 620 mmHg 62%
    19:00 -1°C° 0 mm 2 mps 620 mmHg 62%
    20:00 -1°C° 0 mm 2 mps 620 mmHg 62%
    21:00 -1°C° 0 mm 2 mps 620 mmHg 62%
    22:00 -1°C° 0 mm 2 mps 620 mmHg 62%
    23:00 -1°C° 0 mm 2 mps 620 mmHg 62%

    Tomorrow, 20 November, Monday

    Time Temperature Precipitation Wind Pressure Humidity
    00:00 -1°C° 0 mm 2 mps 621 mmHg 62%
    01:00 -1°C° 0 mm 2 mps 620 mmHg 62%
    02:00 -1°C° 0 mm 2 mps 620 mmHg 63%
    03:00 +1°C° 0 mm 1 mps 620 mmHg 63%
    04:00 +1°C° 0 mm 1 mps 620 mmHg 63%
    05:00 +1°C° 0 mm 1 mps 620 mmHg 63%
    06:00 +1°C° 0 mm 1 mps 620 mmHg 62%
    07:00 +3°C° 0 mm 1 mps 621 mmHg 57%
    08:00 +4°C° 0 mm 1 mps 622 mmHg 53%
    09:00 +6°C° 0 mm 1 mps 623 mmHg 48%
    10:00 +8°C° 0 mm 1 mps 623 mmHg 45%
    11:00 +9°C° 0 mm 1 mps 624 mmHg 41%
    12:00 +11°C° 0 mm 1 mps 624 mmHg 38%
    13:00 +10°C° 0 mm 1 mps 623 mmHg 42%
    14:00 +9°C° 0 mm 1 mps 623 mmHg 46%
    15:00 +9°C° 0 mm 1 mps 622 mmHg 50%
    16:00 +7°C° 0 mm 1 mps 622 mmHg 56%
    17:00 +5°C° 0 mm 1 mps 621 mmHg 62%
    18:00 +3°C° 0 mm 1 mps 620 mmHg 68%
    19:00 +3°C° 0 mm 1 mps 620 mmHg 65%
    20:00 +3°C° 0 mm 1 mps 620 mmHg 63%
    21:00 +3°C° 0 mm 1 mps 620 mmHg 60%
    22:00 +2°C° 0 mm 1 mps 620 mmHg 56%
    23:00 +2°C° 0 mm 1 mps 620 mmHg 51%

    Day after tomorrow, 21 November, Tuesday

    Time Temperature Precipitation Wind Pressure Humidity
    00:00 +2°C° 0 mm 1 mps 620 mmHg 47%
    01:00 +2°C° 0 mm 1 mps 620 mmHg 44%
    02:00 +2°C° 0 mm 1 mps 620 mmHg 41%
    03:00 +1°C° 0 mm 2 mps 619 mmHg 37%
    04:00 +1°C° 0 mm 2 mps 619 mmHg 36%
    05:00 +1°C° 0 mm 2 mps 619 mmHg 35%
    06:00 +1°C° 0 mm 2 mps 619 mmHg 33%
    07:00 +4°C° 0 mm 1 mps 620 mmHg 32%
    08:00 +6°C° 0 mm 1 mps 621 mmHg 32%
    09:00 +8°C° 0 mm 1 mps 622 mmHg 31%
    10:00 +9°C° 0 mm 1 mps 622 mmHg 29%
    11:00 +11°C° 0 mm 1 mps 622 mmHg 28%
    12:00 +12°C° 0 mm 1 mps 623 mmHg 26%
    13:00 +12°C° 0 mm 1 mps 622 mmHg 31%
    14:00 +11°C° 0 mm 1 mps 622 mmHg 35%
    15:00 +10°C° 0 mm 1 mps 621 mmHg 40%
    16:00 +8°C° 0 mm 1 mps 620 mmHg 44%
    17:00 +6°C° 0 mm 1 mps 619 mmHg 47%
    18:00 +4°C° 0 mm 1 mps 618 mmHg 51%
    19:00 +4°C° 0 mm 1 mps 618 mmHg 50%
    20:00 +3°C° 0 mm 1 mps 618 mmHg 49%
    21:00 +3°C° 0 mm 1 mps 618 mmHg 48%
    22:00 +3°C° 0 mm 1 mps 618 mmHg 48%
    23:00 +3°C° 0 mm 1 mps 618 mmHg 47%

    22 November, Wednesday

    Time Temperature Precipitation Wind Pressure Humidity
    00:00 +3°C° 0 mm 1 mps 618 mmHg 47%
    01:00 +3°C° 0 mm 1 mps 617 mmHg 45%
    02:00 +3°C° 0 mm 1 mps 617 mmHg 44%
    03:00 +2°C° 0 mm 1 mps 617 mmHg 43%
    04:00 +2°C° 0 mm 1 mps 617 mmHg 41%
    05:00 +2°C° 0 mm 1 mps 617 mmHg 40%
    06:00 +2°C° 0 mm 1 mps 616 mmHg 39%
    07:00 +4°C° 0 mm 1 mps 617 mmHg 38%
    08:00 +5°C° 0 mm 1 mps 618 mmHg 37%
    09:00 +7°C° 0 mm 1 mps 619 mmHg 36%
    10:00 +7°C° 0 mm 2 mps 619 mmHg 34%
    11:00 +9°C° 0 mm 2 mps 619 mmHg 33%
    12:00 +10°C° 0 mm 3 mps 620 mmHg 32%
    13:00 +10°C° 0 mm 3 mps 619 mmHg 35%
    14:00 +9°C° 0 mm 2 mps 619 mmHg 38%
    15:00 +8°C° 0 mm 2 mps 618 mmHg 41%
    16:00 +6°C° 0 mm 2 mps 617 mmHg 47%
    17:00 +4°C° 0 mm 2 mps 616 mmHg 52%
    18:00 +2°C° 0 mm 2 mps 616 mmHg 57%
    19:00 +2°C° 0 mm 2 mps 616 mmHg 58%
    20:00 +2°C° 0 mm 2 mps 616 mmHg 59%
    21:00 +1°C° 0 mm 2 mps 616 mmHg 60%
    22:00 +1°C° 0 mm 2 mps 616 mmHg 61%
    23:00 +1°C° 0 mm 2 mps 615 mmHg 63%

    23 November, Thursday

    Time Temperature Precipitation Wind Pressure Humidity
    00:00 +1°C° 0 mm 2 mps 615 mmHg 65%
    01:00 +1°C° 0 mm 2 mps 615 mmHg 64%
    02:00 -1°C° 0 mm 2 mps 615 mmHg 63%
    03:00 -1°C° 0 mm 2 mps 615 mmHg 62%
    04:00 -1°C° 0 mm 2 mps 615 mmHg 60%
    05:00 -1°C° 0 mm 2 mps 615 mmHg 58%
    06:00 -1°C° 0 mm 2 mps 616 mmHg 56%
    07:00 +2°C° 0 mm 2 mps 617 mmHg 52%
    08:00 +3°C° 0 mm 2 mps 618 mmHg 48%
    09:00 +5°C° 0 mm 2 mps 619 mmHg 44%
    10:00 +7°C° 0 mm 2 mps 619 mmHg 41%
    11:00 +8°C° 0 mm 2 mps 620 mmHg 38%
    12:00 +9°C° 0 mm 2 mps 621 mmHg 35%
    13:00 +9°C° 0 mm 2 mps 620 mmHg 38%
    14:00 +8°C° 0 mm 2 mps 620 mmHg 42%
    15:00 +8°C° 0 mm 2 mps 619 mmHg 45%
    16:00 +6°C° 0 mm 2 mps 619 mmHg 51%
    17:00 +4°C° 0 mm 2 mps 618 mmHg 57%
    18:00 +2°C° 0 mm 2 mps 618 mmHg 64%
    19:00 +2°C° 0 mm 2 mps 618 mmHg 64%
    20:00 +2°C° 0 mm 2 mps 618 mmHg 64%
    21:00 +2°C° 0 mm 2 mps 618 mmHg 64%
    22:00 +2°C° 0 mm 2 mps 618 mmHg 64%
    23:00 +3°C° 0 mm 2 mps 618 mmHg 64%

    24 November, Friday

    Time Temperature Precipitation Wind Pressure Humidity
    00:00 +3°C° 0 mm 2 mps 618 mmHg 63%
    01:00 +3°C° 0 mm 2 mps 618 mmHg 62%
    02:00 +3°C° 0 mm 2 mps 618 mmHg 61%
    03:00 +3°C° 0 mm 2 mps 618 mmHg 60%
    04:00 +2°C° 0 mm 2 mps 618 mmHg 61%
    05:00 +2°C° 0 mm 2 mps 618 mmHg 62%
    06:00 +2°C° 0 mm 2 mps 617 mmHg 64%
    07:00 +3°C° 0 mm 2 mps 618 mmHg 62%
    08:00 +5°C° 0 mm 2 mps 619 mmHg 61%
    09:00 +6°C° 0 mm 2 mps 620 mmHg 60%
    10:00 +7°C° 0 mm 3 mps 620 mmHg 55%
    11:00 +9°C° 0 mm 3 mps 620 mmHg 50%
    12:00 +10°C° 0 mm 3 mps 621 mmHg 45%
    13:00 +10°C° 0 mm 3 mps 620 mmHg 45%
    14:00 +9°C° 0 mm 3 mps 620 mmHg 45%
    15:00 +9°C° 0 mm 3 mps 619 mmHg 46%
    16:00 +7°C° 0 mm 3 mps 618 mmHg 49%
    17:00 +4°C° 0 mm 3 mps 618 mmHg 53%
    18:00 +4°C° 0 mm 2 mps 617 mmHg 57%
    19:00 +3°C° 0 mm 3 mps 617 mmHg 56%
    20:00 +3°C° 0 mm 3 mps 617 mmHg 56%
    21:00 +3°C° 0 mm 3 mps 617 mmHg 56%
    22:00 +3°C° 0 mm 3 mps 617 mmHg 55%
    23:00 +2°C° 0 mm 3 mps 617 mmHg 55%
    Show more